Simultaneous Nadir Overpasses (SNOs) Predictions

Prediction of SNOs between METOP-A and NOAA-19 Satellite Orbit:

Table of predicted SNOs for the next 14.0 days since TLE Epoch: 10/26/2012
Index Date (METOP-A) Time (METOP-A) METOP-A Lat,Lon Date (NOAA-19) Time (NOAA-19) NOAA-19 Lat,Lon Distance(km) Time Diff (sec)
1 10/31/2012 22:43:22 -73.68, 12.94 10/31/2012 22:42:12 -73.68, 10.90 63.88 70
2 10/31/2012 23:34:10 73.24, 179.27 10/31/2012 23:33:01 73.24, 179.18 2.76 69
3 11/01/2012 00:24:53 -73.21, -13.47 11/01/2012 00:24:07 -73.19, -13.48 2.03 46
4 11/01/2012 01:15:33 73.16, 153.76 11/01/2012 01:15:05 73.19, 153.77 3.68 28
5 11/01/2012 02:06:16 -73.13, -38.98 11/01/2012 02:06:11 -73.14, -38.89 3.17 5
6 11/01/2012 02:56:55 73.13, 128.36 11/01/2012 02:57:09 73.14, 128.36 1.39 14
7 11/01/2012 03:47:38 -73.10, -64.38 11/01/2012 03:48:15 -73.09, -64.31 2.66 37
8 11/01/2012 04:38:16 73.10, 102.96 11/01/2012 04:39:12 73.09, 102.95 0.96 56
9 11/01/2012 05:29:03 -72.87, -90.21 11/01/2012 05:30:15 -72.89, -89.39 26.82 72




NCC Satellite Simultaneous Nadir Overpasses (SNOs) Prediction Service
